User: anonymous   Login
Location: İstanbul
(41.0082°N, 28.9784°E)
Time: 07:19:18
(UTC+03:00)
Language:

SPROUT - Orbit

View from above orbital plane
View from above orbital plane
View from above satellite
View from above satellite

Ground track
Ground track

The orbit data is extracted from the following two-line orbital elements,

1 39770U 14029E   24106.37620122  .00109604  00000-0  37664-2 0  9996
2 39770  98.0090 253.2131 0003392 302.3240  57.7670 15.29645539537996
Epoch (UTC): 15 April 2024 09:01:43
Eccentricity: 0.0003392
inclination: 98.0090°
perigee height: 474 km
apogee height: 479 km
right ascension of ascending node: 253.2131°
argument of perigee: 302.3240°
revolutions per day: 15.29645539
mean anomaly at epoch: 57.7670°
orbit number at epoch: 53799

The dashed part of the orbit path shows where the satellite is in the earth's shadow,  

DLR